Weather observations for the past three days for
Cape Newenham, Cape Newenham LRRS Airport
Metric (Imperial)
Date Time (akdt) Wind (kph) Vis. (km) Weather Sky Cond. Temperature (ºC) Relative Humidity Wind Chill (°C) Heat Index (°C) Pressure Precipitation (cm)
Air Dwpt 6 hour altimeter (cm) sea level (mb) 1 hr 3 hr 6 hr
Max. Min.
20 21:55 Calm 16.09 Fair CLR 13.5 8.1 15.7 11.8 70% 76.76 1023.6
20 20:55 Calm 16.09 Fair CLR 13.5 8.5 72% 76.76 1023.6
20 19:55 Vrbl 6 16.09 Fair CLR 12.8 8.4 75% 76.78 1024.0
20 18:55 NW 2 16.09 Fair CLR 12.6 8.8 78% 76.81 1024.1
20 17:55 Vrbl 11 16.09 Fair CLR 14.1 7.3 64% 76.81 1024.2
20 16:55 Vrbl 6 16.09 Fair CLR 14.9 6.8 59% 76.84 1024.4
20 15:55 Vrbl 7 16.09 Fair CLR 14.7 6.6 14.5 9.6 59% 76.86 1024.7
20 14:55 NW 6 16.09 Fair CLR 13.2 8.3 72% 76.86 1024.7
20 13:55 Vrbl 6 16.09 Fair CLR 12.5 7.9 74% 76.86 1025.1
20 12:55 Vrbl 7 16.09 Fair CLR 12.9 7.8 71% 76.86 1025.0
20 11:55 Vrbl 4 16.09 Fair CLR 11.6 8 79% 76.86 1025.1
20 10:55 Vrbl 6 16.09 Fair CLR 11.9 6.5 70% 76.86 1025.1
20 09:55 N 4 16.09 Fair CLR 10.5 8.4 12.2 7.3 87% 76.86 1025.0
20 08:55 Calm 16.09 Fair CLR 10 6.4 79% 76.86 1025.1
20 07:55 Calm 16.09 Fair CLR 8.5 4.5 76% 76.89 1025.3
20 06:55 Calm 16.09 Fair CLR 9.1 2.6 64% 76.86 1025.2
20 05:55 Calm 16.09 Fair CLR 9 3.2 67% 76.89 1025.4
20 04:55 Calm 16.09 Fair CLR 9.1 1.5 59% 76.89 1025.5
20 03:55 Calm 16.09 Fair CLR 9 2.3 10.9 7 63% 76.91 1025.7
20 02:55 N 7 16.09 Fair CLR 10.1 0.8 53% 76.94 1025.9
20 01:55 Calm 16.09 Fair CLR 7.2 4.8 85% 76.96 1026.4
20 00:55 Calm 16.09 Fair CLR 7.5 5.9 90% 76.94 1026.3
19 23:55 Calm 16.09 Fair CLR 7.8 6.9 94% 76.94 1026.0
19 22:55 Calm 16.09 Fair CLR 8 6.9 93% 76.94 1026.2
19 21:55 N 6 16.09 A Few Clouds FEW006 8.5 7 10.5 7.3 90% 76.94 1026.1
19 20:55 Calm 16.09 Fair CLR 8.6 7.1 90% 76.91 1025.7
19 19:55 Vrbl 7 16.09 Fair CLR 9 7.1 88% 8 76.91 1025.6
19 18:55 N 6 16.09 Fair CLR 8.9 6.8 87% 76.89 1025.6
19 17:55 N 9 16.09 Fair CLR 9 6.9 87% 8 76.91 1025.8
19 16:55 Vrbl 11 16.09 Fair CLR 9.5 7 85% 8 76.91 1025.7
19 15:55 Vrbl 6 16.09 Mostly Cloudy BKN006 8.5 6.1 8.3 6.2 85% 76.94 1026.2
19 14:55 Vrbl 11 16.09 Mostly Cloudy BKN006 7.9 6.1 89% 6 76.94 1026.1
19 13:55 Vrbl 9 16.09 Overcast OVC005 7 6 93% 5 76.94 1026.3
19 12:55 Vrbl 11 16.09 Overcast OVC003 7.1 6 93% 5 76.94 1026.3
19 11:55 Vrbl 11 16.09 Mostly Cloudy SCT004 BKN180 7.5 6.4 93% 6 76.94 1025.9
19 10:55 Calm 16.09 Mostly Cloudy BKN004 7.8 6.3 90% 76.91 1025.7
19 09:55 Calm 16.09 Overcast OVC003 6.3 5.9 7 6.1 97% 76.89 1025.6
19 08:55 Vrbl 6 16.09 Overcast OVC003 6.4 5.8 96% 76.91 1025.7
19 07:55 Vrbl 4 16.09 Overcast OVC003 6.3 5.9 97% 76.89 1025.4
19 06:55 N 7 16.09 Overcast OVC004 6.4 5.7 95% 5 76.89 1025.5
19 05:55 Calm 16.09 Overcast OVC004 6.5 5.9 96% 76.86 1025.0
19 04:55 Calm 16.09 Overcast OVC005 6.8 6.1 95% 76.84 1024.8
19 03:55 Calm 16.09 Overcast OVC005 6.9 6.1 7.5 6.9 95% 76.84 1024.9
19 02:55 Calm 16.09 Overcast OVC006 7 5.9 93% 76.84 1024.9
19 01:55 NW 4 16.09 Overcast OVC005 7 6.2 95% 76.86 1025.2
19 00:55 Vrbl 11 16.09 Mostly Cloudy BKN005 7.2 6.3 94% 5 76.86 1024.9
18 23:55 N 7 16.09 Overcast OVC004 7.3 6.6 95% 6 76.81 1024.4
18 22:55 N 11 16.09 Overcast BKN004 OVC065 7.3 6.5 95% 5 76.78 1024.1
18 21:55 N 11 16.09 Overcast OVC005 7.4 6.5 8.9 7.3 94% 6 76.78 1023.9
18 20:55 N 19 16.09 Overcast OVC004 7.5 6.6 94% 5 76.76 1023.6
18 19:55 N 15 16.09 Overcast OVC005 7.8 6.6 92% 6 76.73 1023.5
18 18:55 N 17 16.09 Overcast OVC005 8.1 7.2 94% 6 76.73 1023.4
18 17:55 N 17 16.09 Overcast OVC005 8.5 7.2 92% 6 76.73 1023.2
18 16:55 N 9 16.09 Overcast OVC007 8.5 7.1 91% 7 76.71 1022.9
18 15:55 Vrbl 11 16.09 Overcast OVC005 7.8 6.9 8.8 7.3 94% 6 76.68 1022.7
18 14:55 N 13 16.09 Overcast OVC004 7.6 6.6 93% 6 76.68 1022.7
18 13:55 N 19 16.09 Overcast OVC005 7.9 6.7 92% 5 76.66 1022.3
18 12:55 N 17 16.09 Overcast OVC006 8.3 6.8 90% 6 76.61 1021.7
18 11:55 N 15 16.09 Overcast OVC004 8 7.5 97% 6 76.61 1021.6
18 10:55 NW 19 16.09 Overcast OVC007 8.4 7.1 92% 6 76.56 1020.9
18 09:55 N 20 16.09 Overcast OVC004 8.4 7.5 8.6 8.1 94% 6 76.53 1020.4
18 07:55 NW 19 16.09 Overcast OVC003 8.3 8 98% 6 76.43 1019.3
18 06:55 N 26 16.09 Overcast OVC003 8.4 8.2 99% 5 76.38 1018.5
18 05:55 N 22 11.27 Overcast OVC002 8.4 8.2 99% 5 76.35 1018.2
18 04:55 N 22 11.27 Overcast OVC003 8.4 8.2 99% 5 76.33 1017.9
18 03:55 NW 17 16.09 Overcast OVC004 8.5 8.1 8.9 8.3 97% 6 76.3 1017.6
18 02:55 N 20 11.27 Overcast OVC003 8.7 8.4 98% 6 76.3 1017.4
18 01:55 N 31 16.09 Mostly Cloudy FEW004 BKN029 8.9 8.4 97% 5 76.25 1016.9
18 00:55 N 24 11.27 Overcast BKN003 OVC037 8.6 8.4 99% 6 76.23 1016.5
17 23:55 N 24 16.09 Overcast SCT004 OVC040 8.7 8.2 97% 6 76.2 1016.1
17 22:55 N 15 16.09 Mostly Cloudy FEW005 BKN040 8.4 7.6 95% 6 76.17 1015.9
Date Time (akdt) Wind (kph) Vis. (km) Weather Sky Cond. Air Dwpt Max. Min. Relative Humidity Wind Chill (°C) Heat Index (°C) altimeter (cm) sea level (mb) 1 hr 3 hr 6 hr
6 hour
Temperature (ºC) Pressure Precipitation (cm)